Flag Weather past 2 weeks in Bursa, Turkey

Now
46 °F

Fog.


Feels Like: 46 °F
Forecast: 45 / 56 °F
Wind: 1 mph from Southeast

Location: Bursa

Current Time: Nov 29, 2014 at 9:34:00 AM

Latest Report: Nov 29, 2014 at 8:00 AM


Visibility: 4 mi

Pressure: 30.32 "Hg

Humidity: 87%

Dew point: 42 °F

Location of BursaLocation

Historic Weather in Bursa — Graph

°F

Bursa temperature yesterday

Maximum temperature yesterday: 55 °F (at 3:00 PM)
Minimum temperature yesterday: 35 °F (at 4:00 AM)
Average temperature yesterday: 43 °F

Past Weeks' High & Low Weather Summary

 TemperatureHumidityPressure
High70 °F (Nov 19, 3:00 PM)100% (Nov 17, 5:00 AM)30.35 "Hg (Nov 17, 5:00 AM)
Low35 °F (Nov 28, 4:00 AM)46% (Nov 20, 1:00 AM)29.89 "Hg (Nov 14, 5:00 PM)
Average51 °F87%30.14 "Hg
* Reported Nov 14 8:00 AM — Nov 29 8:00 AM, Bursa, Weather by CustomWeather, © 2014

Note: Actual official high and low records may vary slightly from our data, if they occured in-between our weather recording intervals... More about our weather records

Advertising

Bursa weather history for previous 24 hours

 ConditionsComfort  
Time TempWeatherWind HumidityBarometerVisibility
8:00 AM
Nov 29
46 °FFog.1 mph87%30.32 "Hg4 mi
5:00 AM45 °FFog.2 mph87%30.32 "Hg3 mi
2:00 AM44 °FFog.5 mph87%30.32 "Hg3 mi
11:00 PM
Nov 28
43 °FFog.2 mph94%30.33 "Hg3 mi
8:00 PM43 °FFog.2 mph96%30.32 "Hg3 mi
7:00 PM44 °FFog.No wind90%30.31 "Hg4 mi
6:00 PM47 °FFog.3 mph83%30.31 "Hg4 mi
5:00 PM48 °FFog.2 mph83%30.29 "Hg4 mi
4:00 PM55 °FSunny.1 mph61%30.28 "Hg6 mi
3:00 PM55 °FSunny.2 mph57%30.28 "Hg9 mi
2:00 PM54 °FPassing clouds.3 mph59%30.28 "Hg9 mi
1:00 PM52 °FScattered clouds.7 mph65%30.29 "Hg9 mi
12:00 PM51 °FPartly sunny.6 mph70%30.30 "Hg6 mi
11:00 AM47 °FFog.5 mph80%30.31 "Hg4 mi
10:00 AM44 °FFog.3 mph93%30.32 "Hg4 mi
9:00 AM40 °FFog.1 mph95%30.33 "Hg4 mi
Weather by CustomWeather, © 2014

See weather overviewHow to use our weather pages